Weather History for Litchfield, IL

Change the Weather History Date:

Thursday, September 26, 2013

  Actual Average (KSPI) Record (KSPI)
Temperature  
Mean Temperature 70 °F 62 °F  
Max Temperature 82 °F 75 °F 92 °F (1897)
Min Temperature 59 °F 50 °F 35 °F (2000)
Degree Days  
Heating Degree Days 0 5  
Month to date heating degree days 54  
Since 1 July heating degree days 59  
Cooling Degree Days 6 2  
Month to date cooling degree days 120  
Year to date cooling degree days 1090  
Growing Degree Days 20 (Base 50)    
Moisture  
Dew Point 59 °F    
Average Humidity 72    
Maximum Humidity 97    
Minimum Humidity 41    
Precipitation  
Precipitation 0.00 in 0.09 in 5.12 in (1959)
Month to date precipitation 2.52  
Year to date precipitation 28.17  
Snow  
Snow 0.00 in 0.00 in T in (1942)
Month to date snowfall 0.0  
Since 1 July snowfall 0.0  
Since 1 September snowfall 0.0  
Snow Depth -    
Sea Level Pressure  
Sea Level Pressure 29.99 in    
Wind  
Wind Speed 5 mph (ESE)    
Max Wind Speed 8 mph    
Max Gust Speed -    
Visibility 9 miles    
Events      
T = Trace of Precipitation, MM = Missing Value Source: NWS Daily Summary

Daily Weather History Graph

Daily Weather History Graph

Search for Another Location

Airport:

Trip Planner

Search our weather history database for the weather conditions in past years. The results will help you decide how hot, cold, wet, or windy it might be!

Date:

Astronomy

Sep. 26, 2013 Rise Set
Actual Time 6:50 AM CDT 6:48 PM CDT
Civil Twilight 6:23 AM CDT 7:15 PM CDT
Nautical Twilight 5:52 AM CDT 7:46 PM CDT
Astronomical Twilight 5:20 AM CDT 8:18 PM CDT
Moon 11:49 PM CDT (9/26) 1:40 PM CDT (9/26)
Length of Visible Light 12h 51m
Length of Day
11h 58m
Waning Gibbous, 54% of the Moon is Illuminated
Sep 26
Waning Gibbous
Sep 26
Last Quarter
Oct 4
New
Oct 11
First Quarter
Oct 18
Full

Hourly Weather History & Observations

Time (CDT) Temp. Heat Index Dew Point Humidity Pressure Visibility Wind Dir Wind Speed Gust Speed Precip Events Conditions
12:15 AM 63.3 °F - 59.0 °F 86% 29.90 in 10.0 mi East 5.8 mph - N/A   Clear
12:35 AM 63.0 °F - 59.0 °F 87% 29.90 in 10.0 mi ESE 4.6 mph - N/A   Clear
12:55 AM 62.4 °F - 58.6 °F 87% 29.90 in 10.0 mi East 5.8 mph - N/A   Clear
1:15 AM 62.1 °F - 58.6 °F 89% 29.90 in 10.0 mi East 5.8 mph - N/A   Clear
1:35 AM 61.7 °F - 58.5 °F 89% 29.91 in 10.0 mi East 4.6 mph - N/A   Clear
1:55 AM 61.5 °F - 58.5 °F 90% 29.91 in 10.0 mi East 5.8 mph - N/A   Clear
2:15 AM 61.9 °F - 59.0 °F 90% 29.92 in 10.0 mi East 6.9 mph - N/A   Clear
2:35 AM 61.5 °F - 58.8 °F 91% 29.93 in 10.0 mi East 6.9 mph - N/A   Clear
2:55 AM 61.7 °F - 59.0 °F 91% 29.93 in 10.0 mi East 8.1 mph - N/A   Clear
3:15 AM 61.5 °F - 59.0 °F 91% 29.93 in 10.0 mi ESE 5.8 mph - N/A   Clear
3:35 AM 60.8 °F - 58.6 °F 93% 29.94 in 10.0 mi East 5.8 mph - N/A   Clear
3:55 AM 60.3 °F - 58.5 °F 94% 29.94 in 10.0 mi East 4.6 mph - N/A   Clear
4:15 AM 59.7 °F - 58.1 °F 94% 29.95 in 7.0 mi East 4.6 mph - N/A   Clear
4:35 AM 59.5 °F - 58.1 °F 95% 29.95 in 7.0 mi East 4.6 mph - N/A   Clear
4:55 AM 59.9 °F - 58.5 °F 95% 29.95 in 7.0 mi East 5.8 mph - N/A   Clear
5:15 AM 60.1 °F - 58.5 °F 94% 29.96 in 7.0 mi East 6.9 mph - N/A   Clear
5:35 AM 59.9 °F - 58.3 °F 94% 29.96 in 7.0 mi East 5.8 mph - N/A   Clear
5:55 AM 59.4 °F - 58.1 °F 96% 29.97 in 7.0 mi East 5.8 mph - N/A   Clear
6:15 AM 59.2 °F - 58.1 °F 96% 29.97 in 7.0 mi East 5.8 mph - N/A   Clear
6:35 AM 59.0 °F - 57.9 °F 96% 29.98 in 7.0 mi East 4.6 mph - N/A   Clear
6:55 AM 59.0 °F - 58.1 °F 97% 29.98 in 5.0 mi East 5.8 mph - N/A   Clear
7:15 AM 59.7 °F - 58.3 °F 95% 29.99 in 7.0 mi East 5.8 mph - N/A   Clear
7:35 AM 60.6 °F - 58.8 °F 94% 30.00 in 7.0 mi ESE 5.8 mph - N/A   Clear
7:55 AM 62.6 °F - 59.9 °F 91% 30.00 in 7.0 mi Calm Calm - N/A   Clear
8:15 AM 64.4 °F - 60.4 °F 87% 30.01 in 10.0 mi ESE 4.6 mph - N/A   Clear
8:35 AM 65.7 °F - 60.8 °F 84% 30.01 in 10.0 mi SE 5.8 mph - N/A   Clear
8:55 AM 67.1 °F - 61.2 °F 81% 30.02 in 10.0 mi ESE 4.6 mph - N/A   Clear
9:15 AM 68.5 °F - 61.7 °F 79% 30.03 in 10.0 mi SE 4.6 mph - N/A   Clear
9:35 AM 70.3 °F - 62.6 °F 76% 30.03 in 10.0 mi SSE 5.8 mph - N/A   Clear
9:55 AM 72.0 °F - 63.0 °F 73% 30.03 in 10.0 mi SSE 3.5 mph - N/A   Clear
10:15 AM 73.2 °F - 63.0 °F 70% 30.03 in 10.0 mi SSE 6.9 mph - N/A   Clear
10:35 AM 74.7 °F - 63.1 °F 67% 30.03 in 10.0 mi SSE 4.6 mph - N/A   Clear
10:55 AM 76.3 °F - 62.8 °F 63% 30.03 in 10.0 mi SSE 5.8 mph - N/A   Clear
11:15 AM 77.0 °F - 61.5 °F 59% 30.03 in 10.0 mi SE 8.1 mph - N/A   Clear
11:35 AM 77.5 °F - 60.8 °F 56% 30.03 in 10.0 mi SE 5.8 mph - N/A   Clear
11:55 AM 78.4 °F - 61.3 °F 56% 30.03 in 10.0 mi ESE 5.8 mph - N/A   Clear
12:15 PM 79.3 °F - 61.2 °F 54% 30.02 in 10.0 mi SSW 4.6 mph - N/A   Scattered Clouds
12:35 PM 79.0 °F - 60.6 °F 53% 30.02 in 10.0 mi ESE 5.8 mph - N/A   Scattered Clouds
12:55 PM 79.5 °F - 60.1 °F 51% 30.02 in 10.0 mi ENE 3.5 mph - N/A   Scattered Clouds
1:15 PM 79.3 °F - 60.1 °F 52% 30.01 in 10.0 mi ENE 5.8 mph - N/A   Scattered Clouds
1:35 PM 78.8 °F - 58.6 °F 50% 30.01 in 10.0 mi Calm Calm - N/A   Scattered Clouds
1:55 PM 80.8 °F 81.2 °F 58.8 °F 47% 30.01 in 10.0 mi ESE 6.9 mph - N/A   Clear
2:15 PM 82.6 °F 82.5 °F 58.5 °F 44% 30.00 in 10.0 mi South 5.8 mph - N/A   Clear
2:35 PM 82.4 °F 82.5 °F 58.8 °F 45% 30.00 in 10.0 mi East 6.9 mph - N/A   Clear
2:55 PM 81.7 °F 81.5 °F 57.2 °F 43% 29.99 in 10.0 mi South 3.5 mph - N/A   Scattered Clouds
3:15 PM 80.8 °F 81.1 °F 57.9 °F 46% 29.99 in 10.0 mi ENE 5.8 mph - N/A   Scattered Clouds
3:35 PM 81.9 °F 81.8 °F 57.9 °F 44% 29.99 in 10.0 mi ESE 4.6 mph - N/A   Scattered Clouds
3:55 PM 81.7 °F 81.3 °F 55.8 °F 41% 29.99 in 10.0 mi Calm Calm - N/A   Clear
4:15 PM 82.0 °F 81.7 °F 56.7 °F 42% 29.98 in 10.0 mi East 5.8 mph - N/A   Clear
4:35 PM 81.3 °F 81.1 °F 55.9 °F 42% 29.98 in 10.0 mi Calm Calm - N/A   Clear
4:55 PM 81.7 °F 81.3 °F 56.1 °F 41% 29.99 in 10.0 mi Calm Calm - N/A   Clear
5:15 PM 81.1 °F 81.0 °F 55.8 °F 42% 29.99 in 10.0 mi SE 4.6 mph - N/A   Clear
5:35 PM 80.1 °F 80.3 °F 56.3 °F 44% 29.99 in 10.0 mi SSE 3.5 mph - N/A   Clear
5:55 PM 79.2 °F - 56.7 °F 46% 29.99 in 10.0 mi Calm Calm - N/A   Clear
6:15 PM 77.0 °F - 58.1 °F 52% 30.00 in 10.0 mi Calm Calm - N/A   Clear
6:35 PM 74.3 °F - 58.5 °F 58% 29.99 in 10.0 mi Calm Calm - N/A   Clear
6:55 PM 72.5 °F - 58.3 °F 61% 30.00 in 10.0 mi Calm Calm - N/A   Clear
7:15 PM 67.3 °F - 58.3 °F 73% 30.00 in 7.0 mi Calm Calm - N/A   Clear
7:35 PM 65.3 °F - 59.0 °F 80% 30.00 in 10.0 mi Calm Calm - N/A   Clear
7:55 PM 65.1 °F - 59.0 °F 81% 30.01 in 10.0 mi East 3.5 mph - N/A   Clear
8:15 PM 65.8 °F - 58.3 °F 77% 30.01 in 10.0 mi East 3.5 mph - N/A   Clear
8:35 PM 65.1 °F - 58.1 °F 78% 30.02 in 10.0 mi Calm Calm - N/A   Clear
8:55 PM 63.9 °F - 58.3 °F 82% 30.02 in 10.0 mi Calm Calm - N/A   Clear
9:15 PM 63.3 °F - 58.3 °F 84% 30.02 in 10.0 mi Calm Calm - N/A   Clear
9:35 PM 62.4 °F - 57.7 °F 85% 30.03 in 10.0 mi East 4.6 mph - N/A   Clear
9:55 PM 64.2 °F - 57.4 °F 78% 30.03 in 10.0 mi ESE 4.6 mph - N/A   Clear
10:15 PM 66.7 °F - 56.7 °F 70% 30.03 in 10.0 mi ESE 6.9 mph - N/A   Clear
10:35 PM 66.4 °F - 55.4 °F 68% 30.03 in 10.0 mi ESE 5.8 mph - N/A   Clear
10:55 PM 65.7 °F - 54.5 °F 67% 30.04 in 10.0 mi SE 5.8 mph - N/A   Clear
11:15 PM 64.6 °F - 54.0 °F 68% 30.04 in 10.0 mi SE 5.8 mph - N/A   Clear
11:35 PM 64.4 °F - 53.6 °F 68% 30.04 in 10.0 mi SE 4.6 mph - N/A   Clear
11:55 PM 63.9 °F - 53.1 °F 68% 30.05 in 10.0 mi ESE 5.8 mph - N/A   Clear